STARLINK-11197, 60186

Orbit data source: Space-Track

STARLINK-11197, 60186 is a payload satellite owned by SpaceX/Seattle (US) in LEO that was launched on Wed, 03 Jul 2024 UTC via an FALCON 9 launch vehicle from the Air Force Eastern Test Range (AFETR). Payload-class satellites include a variety of spacecraft equipped with specific instruments for various scientific and technological missions. These include communications satellites like Starlink; space stations such as the ISS; scientific satellites like the Hubble; Earth observation satellites from companies like Planet Labs, Umbra, and HawkEye 360; GPS; miniature CubeSats for education and research; and military/defense satellites.

Loading next visibility...
Identifier
60186, 2024-124D
Orbit
LEO
Last TLE update
8 hours ago
Origin
Manufacturer
SpaceX/Seattle
Mission
Operational Commercial Communications
Bus & Motor
STARLINK V2M, Unknown motor
Mass
730 kg wet, ~700 kg dry
Launch date (UTC)
2024-07-03 (1 year ago)
Launch vehicle
FALCON 9
Launch site
Air Force Eastern Test Range (AFETR)
Object type
Payload
Rocket body
Debris
Shape & HBR
Box + 2 Pan, 29 m
Radar Cross Section
36.964 m², Large (>1 m²)

Expand to show TLE details & history

TLE from 8 hours ago
0 STARLINK-11197
1 60186U 24124D   25182.10757248 -.00000864  00000-0 -22865-5 0  9994
2 60186  53.1580 321.2178 0000474  67.1615 292.9453 15.69706610 58200
Epoch: 2025-07-01T02:34Z
TLE epoch observation values (Epoch: 2025-07-01T02:34:54.262Z)
Latitude
-0°
Longitude
3.08393°
Altitude
360.527 km
Speed
7.694 km/s
True Right ascension
21h 24m 52s
True Declination
0° 00' 00"
Sunlit
Object was in full shadow at epoch
Visualization orbit readout
Latitude
-12.8637°
Longitude
-8.26782°
Altitude
363.166 km
Speed
7.692 km/s
Apparent Right ascension
18h 10m 32s
Apparent Declination
-66° 53' 41"
Sunlit
Object is in full shadow
Visualization observer readout
Local Sidereal Time
21:47:38
Azimuth
200.49° SSW
Elevation
-24.484°
Doppler factor
1
Orbital elements
Apogee altitude
360.317 km
Perigee altitude
359.678 km
Semi-major axis
6,738.134 km
Eccentricity
0.00005
Inclination
53.158°
RAAN
321.2178°
Arg. of periapsis
67.1615°
True anomaly
Unknown
Mean anomaly
292.9453°
Eccentric anomaly
Unknown
Mean motion
3.92404 °/min
Orbital period
91.74 mins
BSTAR
-0.0000022865
Loading maneuver chart data...
Loading SW <> Apogee altitude chart data...
Loading historical data...
Loading historical data...
Loading historical data...
Loading historical data...
Loading historical data...
Loading historical data...
Loading historical data...

STARLINK-11197 Visibility forecast

Observer location: undefined°, undefined°

Span
Click to sort rows by Start time (UTC) header in descending order
Start Az.
Max El. time (UTC)
Max El. Az.
Max El.
End time (UTC)
End Az.
5 mins2025-07-01 11:55:14.035Z216.455° SW2025-07-01 11:58:14.035Z110.074° ESE39.317°2025-07-01 12:00:14.035Z59.73° ENE
4 mins2025-07-01 18:21:14.035Z340.21° N2025-07-01 18:22:14.035Z12.337° NNE29.615°2025-07-01 18:25:14.035Z103.341° ESE
|